Location: Kitchener
(43.4500°N, 80.5000°W)
Time: 22:19:06
(UTC-04:00)

ATLAS 5 CENTAUR R/B - Visible Passes

Search period start: 02 September 2014 00:00
Search period end: 12 September 2014 00:00
Orbit: 718 x 945 km, 63.4° (Epoch: 01 September)

Date Brightness Start Highest point End Pass type
(mag) Time Alt. Az. Time Alt. Az. Time Alt. Az.
02 Sep 4.1 01:40:45 24° NNE 01:40:45 24° NNE 01:43:02 10° NNE visible
02 Sep 4.3 03:22:18 15° NW 03:23:39 16° NNW 03:26:58 10° NNE visible
03 Sep 4.2 01:22:35 21° NNE 01:22:35 21° NNE 01:24:31 10° NNE visible
03 Sep 4.3 03:04:09 16° NW 03:05:04 16° NNW 03:08:29 10° NNE visible
04 Sep 4.4 01:04:25 19° NNE 01:04:25 19° NNE 01:05:59 10° NNE visible
04 Sep 4.3 02:45:58 16° NNW 02:46:28 17° NNW 02:49:59 10° NNE visible
04 Sep 4.7 06:17:32 10° NNW 06:21:09 16° NNE 06:24:51 10° ENE visible
05 Sep 4.5 00:46:13 17° NNE 00:46:13 17° NNE 00:47:28 10° NNE visible
05 Sep 4.4 02:27:46 17° NNW 02:27:53 17° NNW 02:31:30 10° NNE visible
05 Sep 4.8 05:59:03 10° NNW 06:02:34 16° NNE 06:06:10 10° ENE visible
06 Sep 4.5 00:27:59 15° NNE 00:27:59 15° NNE 00:28:57 10° NNE visible
06 Sep 4.4 02:09:32 18° NNW 02:09:32 18° NNW 02:13:00 10° NNE visible
06 Sep 4.8 05:40:34 10° NNW 05:43:58 16° NNE 05:47:28 10° ENE visible
07 Sep 4.6 00:09:43 14° NNE 00:09:43 14° NNE 00:10:26 10° NNE visible
07 Sep 4.5 01:51:16 18° NNW 01:51:16 18° NNW 01:54:31 10° NNE visible
07 Sep 4.8 05:22:04 10° N 05:25:23 15° NNE 05:28:46 10° ENE visible
07 Sep 4.6 23:51:25 13° NNE 23:51:25 13° NNE 23:51:54 10° NE visible
08 Sep 4.5 01:32:58 18° NNW 01:32:58 18° NNW 01:36:01 10° NNE visible
08 Sep 4.9 05:03:35 10° N 05:06:47 15° NNE 05:10:04 10° ENE visible
08 Sep 4.6 23:33:04 12° NE 23:33:04 12° NE 23:33:23 10° NE visible
09 Sep 4.5 01:14:36 18° NNW 01:14:36 18° NNW 01:17:31 10° NNE visible
09 Sep 4.9 04:45:06 10° N 04:48:12 14° NNE 04:51:21 10° NE visible
09 Sep 4.6 23:14:37 11° NE 23:14:37 11° NE 23:14:52 10° NE visible
10 Sep 4.5 00:56:09 19° NNW 00:56:09 19° NNW 00:59:02 10° NNE visible
10 Sep 4.9 04:26:37 10° N 04:29:36 14° NNE 04:32:39 10° NE visible
10 Sep 3.7 06:10:22 10° NNW 06:15:57 41° NE 06:21:45 10° ESE visible
10 Sep 4.5 22:56:03 12° NE 22:56:03 12° NE 22:56:20 10° NE visible
11 Sep 4.4 00:37:34 19° NNW 00:37:34 19° NNW 00:40:32 10° NNE visible
11 Sep 5.0 04:08:08 10° N 04:11:00 14° NNE 04:13:56 10° NE visible
11 Sep 3.8 05:51:51 10° NNW 05:57:24 40° NE 06:03:09 10° ESE visible
11 Sep 4.4 22:37:13 13° NE 22:37:13 13° NE 22:37:48 10° NE visible
